This is the latest recevied weather packets stored in our database for station/object KC3QJO. If no packets are shown the sender has not sent any weather packets the latest 10 day(s).
| Time | Temp. | Humidity | Pressure | Rain* | Wind** | Luminosity | Snow |
|---|---|---|---|---|---|---|---|
| 1777456551 | 10° C | 70% | 1014.5 hPa | 0 mm | - | 0 W/m² | - |
| 1777453553 | 10.56° C | 70% | 1014.7 hPa | 0 mm | - | 0 W/m² | - |
| 1777453263 | 10.56° C | 69% | 1014.8 hPa | 0 mm | - | 0 W/m² | - |
| 1777449654 | 10.56° C | 69% | 1015.1 hPa | 0 mm | - | 0 W/m² | - |
| 1777448151 | 11.11° C | 70% | 1014.9 hPa | 0 mm | - | 0 W/m² | - |
| 1777447550 | 11.11° C | 70% | 1015.2 hPa | 0 mm | - | 0 W/m² | - |
| 1777446961 | 11.11° C | 72% | 1015.3 hPa | 0 mm | - | 0 W/m² | - |
| 1777446650 | 11.11° C | 72% | 1015.4 hPa | 0 mm | - | 0 W/m² | - |
| 1777445753 | 11.11° C | 72% | 1015.7 hPa | 0 mm | - | 0 W/m² | - |
| 1777443650 | 11.11° C | 70% | 1015.8 hPa | 0 mm | - | 0 W/m² | - |
| 1777443355 | 11.67° C | 70% | 1016 hPa | 0 mm | - | 0 W/m² | - |
| 1777443050 | 11.67° C | 69% | 1015.9 hPa | 0 mm | - | 0 W/m² | - |
| 1777442750 | 11.67° C | 69% | 1015.9 hPa | 0 mm | - | 0 W/m² | - |
| 1777440951 | 11.67° C | 68% | 1015.9 hPa | 0 mm | - | 0 W/m² | - |
| 1777440663 | 11.67° C | 68% | 1016 hPa | 0 mm | - | 0 W/m² | - |
| 1777440351 | 11.67° C | 68% | 1016 hPa | 0 mm | - | 0 W/m² | - |
| 1777439151 | 11.67° C | 67% | 1016.4 hPa | 0 mm | - | 0 W/m² | - |
| 1777438551 | 11.67° C | 67% | 1016.3 hPa | 0 mm | - | 0 W/m² | - |
| 1777438250 | 11.67° C | 66% | 1016.4 hPa | 0 mm | - | 0 W/m² | - |
| 1777437961 | 11.67° C | 66% | 1016.4 hPa | 0 mm | - | 0 W/m² | - |
| 1777434954 | 12.22° C | 63% | 1017 hPa | 0 mm | - | 0 W/m² | - |
| 1777434354 | 12.22° C | 63% | 1016.9 hPa | 0 mm | - | 0 W/m² | - |
| 1777430150 | 12.78° C | 62% | 1016.6 hPa | 0 mm | - | 0 W/m² | - |
| 1777428968 | 12.78° C | 62% | 1016.3 hPa | 0 mm | - | 0 W/m² | - |
| 1777427750 | 12.78° C | 62% | 1016.4 hPa | 0 mm | - | 0 W/m² | - |
* Rain latest hour (hover to see other rain measurements)
** Current wind speed in m/s (hover to see current wind gust speed)